sat.trackr.live / text

‹ back to catalog

KUIPER-00088

NORAD 65133 · 2025-171B

PAYLOAD ACTIVE UNKNOWN

§ Identity

Operator
Country
US
Launch date
2025-08-11
Launch site
AFETR
Launch vehicle
Mass (kg)
RCS (m²)

External: N2YO · Heavens-Above · Gunter

§ Orbital elements

Epoch: 2026-05-25T03:31:29.853120Z

Period
97.30 min
Inclination
51.8980°
Eccentricity
0.0000256
Mean motion
14.79934265 rev/d
Perigee alt
629.4 km
Apogee alt
629.7 km
Semi-major
7,007.7 km
B*
3.0001e-4
RAAN
187.4844°
Arg perigee
53.3639°
Mean anomaly
306.7347°
Rev number
4,411

§ Raw data

KUIPER-000881 65133U 25171B   26145.14687330  .00002067  00000+0  30001-3 0  99952 65133  51.8980 187.4844 0000256  53.3639 306.7347 14.79934265 44119

JSON: /api/v1/satellites/65133 · /tle

For live sub-satellite position, see the globe view (requires WebGL).

§ Visibility from observer

Set your observer location to see the next 7 days of passes ≥ 10°. The values pass through the URL so the page stays shareable.

No JS? Fill the form by hand. The geolocation button needs JavaScript.